This is the latest recevied weather packets stored in our database for station/object IW9CSJ-13. If no packets are shown the sender has not sent any weather packets the latest 10 day(s).
| Time | Temp. | Humidity | Pressure | Rain* | Wind** | Luminosity | Snow |
|---|---|---|---|---|---|---|---|
| 1777629319 | 19.44° C | 55% | 1014.1 hPa | 0 mm | - | - | - |
| 1777629020 | 19.44° C | 55% | 1014.1 hPa | 0 mm | - | - | - |
| 1777628719 | 19.44° C | 55% | 1014.1 hPa | 0 mm | - | - | - |
| 1777628118 | 19.44° C | 55% | 1014.1 hPa | 0 mm | - | - | - |
| 1777535420 | 19.44° C | 54% | 1014.2 hPa | 0 mm | - | - | - |
| 1777534820 | 20° C | 54% | 1014.2 hPa | 0 mm | - | - | - |
| 1777534519 | 20° C | 53% | 1014.2 hPa | 0 mm | - | - | - |
| 1777534246 | 20.56° C | 55% | 1014 hPa | 0 mm | - | - | - |
| 1777533919 | 20° C | 56% | 1014 hPa | 0 mm | - | - | - |
| 1777533020 | 20° C | 54% | 1014 hPa | 0 mm | - | - | - |
| 1777532420 | 20° C | 54% | 1014.1 hPa | 0 mm | - | - | - |
| 1777532119 | 20° C | 54% | 1014 hPa | 0 mm | - | - | - |
| 1777531821 | 20° C | 54% | 1014 hPa | 0 mm | - | - | - |
| 1777531219 | 19.44° C | 57% | 1013.9 hPa | 0 mm | - | - | - |
| 1777530919 | 19.44° C | 56% | 1013.8 hPa | 0 mm | - | - | - |
| 1777530319 | 19.44° C | 55% | 1013.9 hPa | 0 mm | - | - | - |
| 1777530020 | 19.44° C | 53% | 1013.8 hPa | 0 mm | - | - | - |
| 1777529722 | 19.44° C | 53% | 1013.8 hPa | 0 mm | - | - | - |
| 1777529420 | 18.89° C | 54% | 1013.7 hPa | 0 mm | - | - | - |
| 1777529120 | 18.89° C | 54% | 1013.7 hPa | 0 mm | - | - | - |
| 1777528519 | 18.33° C | 56% | 1013.7 hPa | 0 mm | - | - | - |
| 1777528221 | 17.78° C | 55% | 1013.8 hPa | 0 mm | - | - | - |
| 1777527619 | 17.78° C | 54% | 1013.8 hPa | 0 mm | - | - | - |
| 1777527319 | 17.78° C | 54% | 1013.8 hPa | 0 mm | - | - | - |
| 1777527021 | 17.22° C | 53% | 1013.8 hPa | 0 mm | - | - | - |
* Rain latest hour (hover to see other rain measurements)
** Current wind speed in m/s (hover to see current wind gust speed)